Location: Niagara
(43.2500°N, 79.0670°W)
Time: 01:23:04
(UTC-05:00)

Envisat - Pass Details

Date: 07 October 2017
Orbit: 764 x 766 km, 98.2° (Epoch: 16 December)

Event Time Altitude Azimuth Distance (km) Brightness Sun altitude
Exits shadow 19:38:14 13° 90° (E) 2,079 4.6 -10.3°
Maximum altitude 19:40:24 17° 61° (ENE) 1,866 4.5 -10.7°
Drops below altitude 10° 19:43:36 10° 22° (NNE) 2,313 5.3 -11.2°
Sets 19:46:39 0° 3° (N) 3,245 6.3 -11.8°
